Russellville, AR

3:09 PM CDT on October 16, 2019 (GMT -0500)
Russellville Regional

Weather History for KRUE - August, 2019

Change the Weather History Date:

Saturday, August 10, 2019

  Actual Average (KHOT) Record (KHOT)
Temperature  
Mean Temperature 82 °F -  
Max Temperature 90 °F 93 °F 107 °F (1954)
Min Temperature 75 °F 69 °F 54 °F (1989)
Cooling Degree Days 17    
Growing Degree Days 32 (Base 50)    
Moisture  
Dew Point 75 °F    
Average Humidity 87    
Maximum Humidity 94    
Minimum Humidity 67    
Precipitation  
Precipitation 1.54 in - - ()
Sea Level Pressure  
Sea Level Pressure 29.94 in    
Wind  
Wind Speed 2 mph (ESE)    
Max Wind Speed 8 mph    
Max Gust Speed -    
Visibility 9 miles    
Events Rain , Thunderstorm    
Averages and records for this station are not official NWS values.
T = Trace of Precipitation, MM = Missing Value Source: NWS Daily Summary

Daily Weather History Graph

Daily Weather History Graph

Search for Another Location

Airport or City:

Astronomy

Aug. 10, 2019 Rise Set
Actual Time 6:28 AM CDT 8:06 PM CDT
Civil Twilight 6:00 AM CDT 8:34 PM CDT
Nautical Twilight 5:27 AM CDT 9:06 PM CDT
Astronomical Twilight 4:53 AM CDT 9:41 PM CDT
Moon 4:45 PM CDT (8/10) 2:08 AM CDT (8/10)
Length of Visible Light 14h 33m
Length of Day
13h 38m
Waxing Gibbous, 79% of the Moon is Illuminated
Aug 10
Waxing Gibbous
Aug 15
Full
Aug 23
Last Quarter
Aug 30
New
Sep 5
First Quarter

Hourly Weather History & Observations

Time (CDT) Temp. Heat Index Dew Point Humidity Pressure Visibility Wind Dir Wind Speed Gust Speed Precip Events Conditions
12:53 AM 80.1 °F 85.1 °F 75.0 °F 85% 29.91 in 10.0 mi Calm Calm - N/A   Overcast
1:53 AM 79.0 °F - 75.0 °F 88% 29.90 in 10.0 mi Calm Calm - N/A   Overcast
2:53 AM 79.0 °F - 75.0 °F 88% 29.89 in 10.0 mi East 3.5 mph - N/A   Overcast
3:36 AM 79.0 °F - 75.0 °F 88% 29.90 in 10.0 mi Calm Calm - N/A Thunderstorm Partly Cloudy
3:53 AM 79.0 °F - 75.0 °F 88% 29.88 in 10.0 mi Calm Calm - N/A Thunderstorm Mostly Cloudy
4:07 AM 78.1 °F - 75.0 °F 90% 29.90 in 10.0 mi Calm Calm - N/A   Mostly Cloudy
4:19 AM 78.1 °F - 75.0 °F 90% 29.91 in 4.0 mi NW 4.6 mph - 0.04 in Rain , Thunderstorm Light Rain
4:23 AM 78.1 °F - 75.0 °F 90% 29.90 in 1.8 mi East 5.8 mph - 0.17 in Rain , Thunderstorm Heavy Rain
4:41 AM 77.0 °F - 73.9 °F 90% 29.93 in - Variable 6.9 mph - 0.74 in Rain , Thunderstorm Heavy Thunderstorms and Rain
4:50 AM 75.2 °F - 73.4 °F 94% 29.92 in 1.2 mi ENE 8.1 mph - 0.90 in Rain , Thunderstorm Heavy Thunderstorms and Rain
4:53 AM 75.0 °F - 73.0 °F 94% 29.90 in 1.8 mi NNE 8.1 mph - 0.91 in Rain , Thunderstorm Heavy Thunderstorms and Rain
4:56 AM 75.0 °F - 72.0 °F 90% 29.92 in 3.0 mi North 5.8 mph - 0.00 in Rain , Thunderstorm Thunderstorms and Rain
5:10 AM 75.0 °F - 73.0 °F 94% 29.91 in 10.0 mi NNE 3.5 mph - 0.01 in Rain Light Rain
5:53 AM 75.0 °F - 73.0 °F 94% 29.90 in 10.0 mi South 3.5 mph - 0.01 in   Overcast
6:53 AM 75.9 °F - 73.9 °F 94% 29.92 in 2.5 mi Variable 3.5 mph - 0.09 in Rain Heavy Rain
7:01 AM 75.9 °F - 73.9 °F 94% 29.96 in 1.0 mi West 4.6 mph - 0.14 in Rain Heavy Rain
7:19 AM 75.9 °F - 73.9 °F 94% 29.94 in 3.0 mi Variable 3.5 mph - 0.51 in Rain Light Rain
7:27 AM 75.9 °F - 73.9 °F 94% 29.95 in 10.0 mi Calm Calm - 0.51 in   Overcast
7:53 AM 75.9 °F - 73.9 °F 94% 29.94 in 9.0 mi Calm Calm - 0.52 in   Overcast
8:04 AM 75.9 °F - 73.9 °F 94% 29.96 in 10.0 mi NNE 4.6 mph - N/A   Overcast
8:23 AM 77.0 °F - 73.9 °F 90% 29.97 in 10.0 mi Calm Calm - N/A   Overcast
8:31 AM 77.0 °F - 73.9 °F 90% 29.98 in 10.0 mi Calm Calm - N/A   Overcast
8:40 AM 77.0 °F - 75.0 °F 94% 29.98 in 10.0 mi Calm Calm - N/A   Overcast
8:53 AM 77.0 °F - 75.0 °F 94% 29.96 in 10.0 mi Calm Calm - N/A   Overcast
9:29 AM 78.1 °F - 75.0 °F 90% 29.98 in 10.0 mi Calm Calm - 0.00 in   Mostly Cloudy
9:53 AM 78.1 °F - 75.0 °F 90% 29.97 in 10.0 mi East 3.5 mph - 0.01 in Rain Light Rain
10:38 AM 78.1 °F - 75.0 °F 90% 30.00 in 10.0 mi East 3.5 mph - 0.00 in   Overcast
10:53 AM 78.1 °F - 75.0 °F 90% 29.99 in 10.0 mi Variable 3.5 mph - 0.00 in   Overcast
11:02 AM 78.1 °F - 75.0 °F 90% 30.01 in 10.0 mi Variable 4.6 mph - N/A   Mostly Cloudy
11:23 AM 78.1 °F - 75.0 °F 90% 30.01 in 10.0 mi Variable 4.6 mph - N/A   Mostly Cloudy
11:37 AM 78.1 °F - 73.9 °F 87% 30.01 in 10.0 mi Variable 5.8 mph - N/A   Overcast
11:53 AM 78.1 °F - 73.9 °F 87% 29.98 in 10.0 mi Variable 3.5 mph - N/A   Overcast
12:25 PM 79.0 °F - 73.9 °F 84% 30.00 in 10.0 mi SSE 4.6 mph - N/A   Mostly Cloudy
12:53 PM 81.0 °F 87.3 °F 75.9 °F 85% 29.97 in 10.0 mi South 6.9 mph - N/A   Mostly Cloudy
1:38 PM 84.0 °F 92.6 °F 75.9 °F 76% 29.96 in 10.0 mi South 8.1 mph - N/A   Scattered Clouds
1:53 PM 82.9 °F 90.8 °F 75.9 °F 79% 29.94 in 10.0 mi South 4.6 mph - N/A   Mostly Cloudy
2:23 PM 84.0 °F 92.6 °F 75.9 °F 76% 29.95 in 10.0 mi SSW 5.8 mph - N/A   Mostly Cloudy
2:53 PM 84.0 °F 92.6 °F 75.9 °F 76% 29.91 in 10.0 mi WSW 3.5 mph - N/A   Mostly Cloudy
3:53 PM 87.1 °F 98.8 °F 77.0 °F 72% 29.89 in 10.0 mi Calm Calm - N/A   Clear
4:53 PM 89.1 °F 101.4 °F 77.0 °F 67% 29.88 in 10.0 mi Calm Calm - N/A   Clear
5:53 PM 89.1 °F 101.4 °F 77.0 °F 67% 29.88 in 10.0 mi Variable 4.6 mph - N/A   Clear
6:53 PM 88.0 °F 100.2 °F 77.0 °F 70% 29.89 in 10.0 mi ESE 3.5 mph - N/A   Partly Cloudy
7:53 PM 84.9 °F 95.3 °F 77.0 °F 77% 29.89 in 10.0 mi Calm Calm - N/A   Clear
8:53 PM 82.0 °F 90.2 °F 77.0 °F 85% 29.90 in 10.0 mi Calm Calm - N/A   Clear
9:53 PM 81.0 °F 87.9 °F 77.0 °F 88% 29.91 in 10.0 mi Calm Calm - N/A   Clear
10:53 PM 81.0 °F 87.9 °F 77.0 °F 88% 29.92 in 10.0 mi Calm Calm - N/A   Clear
11:53 PM 80.1 °F 85.8 °F 77.0 °F 90% 29.93 in 10.0 mi Calm Calm - N/A   Clear